TimeEDT,TemperatureF,Dew PointF,Humidity,Sea Level PressureIn,VisibilityMPH,Wind Direction,Wind SpeedMPH,Gust SpeedMPH,PrecipitationIn,Events,Conditions,WindDirDegrees,DateUTC
12:52 AM,48.0,41.0,77,30.05,10.0,SSW,11.5,-,N/A,,Partly Cloudy,210,2013-04-08 04:52:00
1:10 AM,48.2,41.0,76,30.04,10.0,SW,12.7,19.6,N/A,,Mostly Cloudy,220,2013-04-08 05:10:00
1:52 AM,48.0,42.1,80,30.03,10.0,SW,16.1,20.7,N/A,,Mostly Cloudy,220,2013-04-08 05:52:00
2:02 AM,48.2,42.8,82,30.02,10.0,SSW,12.7,-,N/A,,Mostly Cloudy,210,2013-04-08 06:02:00
2:52 AM,48.0,42.1,80,30.01,10.0,SW,13.8,-,N/A,,Mostly Cloudy,220,2013-04-08 06:52:00
3:52 AM,48.0,42.1,80,29.99,10.0,SW,9.2,-,N/A,,Scattered Clouds,220,2013-04-08 07:52:00
4:15 AM,48.2,42.8,82,29.99,10.0,SW,9.2,17.3,N/A,,Mostly Cloudy,220,2013-04-08 08:15:00
4:52 AM,48.0,43.0,83,29.98,10.0,SSW,9.2,-,N/A,,Scattered Clouds,210,2013-04-08 08:52:00
5:04 AM,48.2,42.8,82,29.97,10.0,SSW,10.4,19.6,N/A,,Partly Cloudy,210,2013-04-08 09:04:00
5:52 AM,46.9,42.1,83,29.99,10.0,SW,5.8,-,N/A,,Clear,220,2013-04-08 09:52:00
6:52 AM,46.0,42.1,86,30.00,9.0,SW,5.8,-,N/A,,Clear,220,2013-04-08 10:52:00
7:52 AM,48.0,43.0,83,30.03,10.0,WSW,6.9,-,N/A,,Clear,250,2013-04-08 11:52:00
8:52 AM,51.1,42.1,71,30.03,10.0,West,6.9,-,N/A,,Clear,280,2013-04-08 12:52:00
9:52 AM,55.9,39.9,55,30.04,10.0,WNW,8.1,-,N/A,,Clear,290,2013-04-08 13:52:00
10:52 AM,57.9,39.9,51,30.05,10.0,WNW,6.9,-,N/A,,Clear,300,2013-04-08 14:52:00
11:52 AM,60.1,39.0,46,30.06,10.0,West,9.2,16.1,N/A,,Clear,270,2013-04-08 15:52:00
12:52 PM,61.0,39.0,44,30.04,10.0,ENE,9.2,-,N/A,,Clear,70,2013-04-08 16:52:00
1:52 PM,61.0,39.0,44,30.05,10.0,NE,9.2,-,N/A,,Clear,40,2013-04-08 17:52:00
2:52 PM,60.1,37.9,44,30.05,10.0,East,8.1,-,N/A,,Clear,90,2013-04-08 18:52:00
3:52 PM,61.0,37.9,42,30.05,10.0,ESE,9.2,-,N/A,,Clear,110,2013-04-08 19:52:00
4:52 PM,59.0,37.9,46,30.06,10.0,East,10.4,-,N/A,,Clear,100,2013-04-08 20:52:00
5:52 PM,57.9,37.0,46,30.07,10.0,ESE,8.1,-,N/A,,Clear,120,2013-04-08 21:52:00
6:52 PM,53.1,37.0,55,30.09,10.0,SE,5.8,-,N/A,,Clear,130,2013-04-08 22:52:00
7:52 PM,48.9,36.0,61,30.10,10.0,ESE,4.6,-,N/A,,Clear,120,2013-04-08 23:52:00
8:52 PM,48.0,37.0,66,30.12,10.0,SSE,3.5,-,N/A,,Clear,150,2013-04-09 00:52:00
9:52 PM,48.0,36.0,63,30.13,10.0,Variable,4.6,-,N/A,,Clear,0,2013-04-09 01:52:00
10:52 PM,46.9,35.1,63,30.12,10.0,SE,4.6,-,N/A,,Clear,140,2013-04-09 02:52:00
11:52 PM,46.9,35.1,63,30.12,10.0,Variable,3.5,-,N/A,,Clear,0,2013-04-09 03:52:00